"Platform","Saginaw Bay ReCON Buoy"
"NDBC ID","45163"
"Latitude (deg)",43.98440
"Longitude (deg)",-83.59753
"Water Depth (m)",12.7
"Sensor Device","AirMar Weather Station Model 200WX"
"Sensor Serial No.","60221354"
"Sensor Height","2.5 meters above water surface"
"Sensor Type","GPS Longitude: Offset from initial deployment position"
"Sensor Units","meters east"
"Measurement","A sample"
"Time means","Time at sample (UTC time zone)"

"Note:","This data was collected for research purposes."
"Note:","Minimal quality checking has been performed so data may contain known or unknown errors."
"Note:","Data provided by NOAA. Please credit NOAA."
"Note:","For more info see www.glerl.noaa.gov/res/recon"

"Time (UTC)","East"
"YYYY/MM/DD HH:MM","m"
2024/05/16 13:30, 9293.7
2024/05/16 13:32, 8235.7
2024/05/16 13:34, 8238.6
2024/05/16 13:36, 8319.6
2024/05/16 13:38, 7904.3
2024/05/16 13:40, 7555.4
2024/05/16 13:42, 7361.5
2024/05/16 13:44, 7048.5
2024/05/16 13:46, 6979.2
2024/05/16 13:48, 7046.0
2024/05/16 13:50, 7360.8
2024/05/16 13:52, 7381.9
2024/05/16 13:54, 7274.9
2024/05/16 13:56, 7167.3
2024/05/16 13:58, 6925.6
2024/05/16 14:00, 6639.9
2024/05/16 14:02, 6318.3
2024/05/16 14:04, 6070.7
2024/05/16 14:06, 5893.2
2024/05/16 14:08, 5761.9
2024/05/16 14:10, 5600.2
2024/05/16 14:12, 5471.2
2024/05/16 14:14, 5339.7
2024/05/16 14:16, 5252.8
2024/05/16 14:18, 5122.9
2024/05/16 14:20, 4980.9
2024/05/16 14:22, 4874.0
2024/05/16 14:24, 4750.2
2024/05/16 14:26, 4663.2
2024/05/16 14:28, 4534.6
2024/05/16 14:30, 4427.6
2024/05/16 14:32, 4352.4
2024/05/16 14:34, 4379.6
2024/05/16 14:36, 4363.5
2024/05/16 14:38, 4377.1
2024/05/16 14:40, 4153.9
2024/05/16 14:42, 3476.3
2024/05/16 14:44, 2535.3
2024/05/16 14:46, 1585.3
2024/05/16 14:48, 628.8
2024/05/16 14:50, 76.8
2024/05/16 14:52, 64.8
2024/05/16 14:54, 64.8
2024/05/16 14:56, 48.0
2024/05/16 14:58, 87.2
2024/05/16 15:00, 89.6
2024/05/16 15:02, 41.6
2024/05/16 15:04, 20.8
2024/05/16 15:06, 0.0
2024/05/16 15:08, 0.0
2024/05/16 15:10, 0.0
2024/05/16 15:12, -1.6
2024/05/16 15:14, -1.6
2024/05/16 15:16, -1.6
2024/05/16 15:18, -1.6
2024/05/16 15:20, -1.6
2024/05/16 15:22, -1.6
2024/05/16 15:24, -1.6
2024/05/16 15:26, -1.6
2024/05/16 15:28, -1.6
2024/05/16 15:30, -1.6
2024/05/16 15:32, 0.0
2024/05/16 15:34, 0.0
2024/05/16 15:36, 0.0
2024/05/16 15:38, 0.0
2024/05/16 15:40, 0.0
2024/05/16 15:42, 0.0
2024/05/16 15:44, 0.0
2024/05/16 15:46, 0.0
2024/05/16 15:48, 0.0
2024/05/16 15:50, 0.0
2024/05/16 15:52, 0.0
2024/05/16 15:54, 0.0
2024/05/16 15:56, 0.0
2024/05/16 15:58, -1.6
2024/05/16 16:00, 0.0
2024/05/16 16:02, -1.6
2024/05/16 16:04, 0.0
2024/05/16 16:06, -1.6
2024/05/16 16:08, -1.6
2024/05/16 16:10, 0.0
2024/05/16 16:12, 0.0
2024/05/16 16:14, 0.0
2024/05/16 16:16, 0.0
2024/05/16 16:18, 0.0
2024/05/16 16:20, 0.0
2024/05/16 16:22, 0.0
2024/05/16 16:24, 0.0
2024/05/16 16:26, 0.0
2024/05/16 16:28, -1.6
2024/05/16 16:30, -1.6
2024/05/16 16:32, -1.6
2024/05/16 16:34, -1.6
2024/05/16 16:36, 0.0
2024/05/16 16:38, 0.0
2024/05/16 16:40, 0.0
2024/05/16 16:42, -1.6
2024/05/16 16:44, 0.0
2024/05/16 16:46, 0.0
2024/05/16 16:48, -1.6
2024/05/16 16:50, -1.6
2024/05/16 16:52, -1.6
2024/05/16 16:54, -1.6
2024/05/16 16:56, -1.6
2024/05/16 16:58, -1.6
2024/05/16 17:00, -1.6
2024/05/16 17:02, -1.6
2024/05/16 17:04, -1.6
2024/05/16 17:06, -1.6
2024/05/16 17:08, -1.6
2024/05/16 17:10, 0.0
2024/05/16 17:12, 0.0
2024/05/16 17:14, 0.0
2024/05/16 17:16, 0.0
2024/05/16 17:18, -1.6
2024/05/16 17:20, -1.6
2024/05/16 17:22, -1.6
2024/05/16 17:24, -1.6
2024/05/16 17:26, -1.6
2024/05/16 17:28, -1.6
2024/05/16 17:30, -1.6
2024/05/16 17:32, -1.6
2024/05/16 17:34, -1.6
2024/05/16 17:36, 0.0
2024/05/16 17:38, 0.0
2024/05/16 17:40, 0.0
2024/05/16 17:42, 0.0
2024/05/16 17:44, 1.6
2024/05/16 17:46, 1.6
2024/05/16 17:48, 0.0
2024/05/16 17:50, 0.0
2024/05/16 17:52, 0.0
2024/05/16 17:54, 0.0
2024/05/16 17:56, 0.0
2024/05/16 17:58, 0.0
2024/05/16 18:00, 0.0
2024/05/16 18:02, 0.0
2024/05/16 18:04, 0.0
2024/05/16 18:06, 0.0
2024/05/16 18:08, 0.0
2024/05/16 18:10, 0.0
2024/05/16 18:12, 0.0
2024/05/16 18:14, 0.0
2024/05/16 18:16, 0.0
2024/05/16 18:18, 0.0
2024/05/16 18:20, 0.0
2024/05/16 18:22, 0.0
2024/05/16 18:24, 0.0
2024/05/16 18:26, -1.6
2024/05/16 18:28, -1.6
2024/05/16 18:30, -1.6
2024/05/16 18:32, -1.6
2024/05/16 18:34, 0.0
2024/05/16 18:36, -1.6
2024/05/16 18:38, 0.0
2024/05/16 18:40, 0.0
2024/05/16 18:42, -1.6
2024/05/16 18:44, 0.0
2024/05/16 18:46, 0.0
2024/05/16 18:48, 0.0
2024/05/16 18:50, -1.6
2024/05/16 18:52, -1.6
2024/05/16 18:54, -1.6
2024/05/16 18:56, -1.6
2024/05/16 18:58, -1.6
2024/05/16 19:00, 0.0
2024/05/16 19:02, 0.0
2024/05/16 19:04, 0.0
2024/05/16 19:06, 0.0
2024/05/16 19:08, 0.0
2024/05/16 19:10, 0.0
2024/05/16 19:12, 0.0
2024/05/16 19:14, 0.0
2024/05/16 19:16, 0.0
2024/05/16 19:18, 0.0
2024/05/16 19:20, 0.0
2024/05/16 19:22, -1.6
2024/05/16 19:24, -1.6
2024/05/16 19:26, 0.0
2024/05/16 19:28, -1.6
2024/05/16 19:30, -1.6
2024/05/16 19:32, -1.6
2024/05/16 19:34, -1.6
2024/05/16 19:36, -1.6
2024/05/16 19:38, -1.6
2024/05/16 19:40, -1.6
2024/05/16 19:42, -1.6
2024/05/16 19:44, -3.2
2024/05/16 19:46, -1.6
2024/05/16 19:48, -3.2
2024/05/16 19:50, -3.2
2024/05/16 19:52, -3.2
2024/05/16 19:54, -3.2
2024/05/16 19:56, -3.2
2024/05/16 19:58, -1.6
2024/05/16 20:00, -1.6
2024/05/16 20:02, -1.6
2024/05/16 20:04, -1.6
2024/05/16 20:06, -1.6
2024/05/16 20:08, -1.6
2024/05/16 20:10, -1.6
2024/05/16 20:12, -1.6
2024/05/16 20:14, -1.6
2024/05/16 20:16, -1.6
2024/05/16 20:18, -1.6
2024/05/16 20:20, -1.6
2024/05/16 20:22, -1.6
2024/05/16 20:24, -1.6
2024/05/16 20:26, -1.6
2024/05/16 20:28, -1.6
2024/05/16 20:30, -1.6
2024/05/16 20:32, -1.6
2024/05/16 20:34, -1.6
2024/05/16 20:36, -1.6
2024/05/16 20:38, -1.6
2024/05/16 20:40, -1.6
2024/05/16 20:42, -1.6
2024/05/16 20:44, -1.6
2024/05/16 20:46, -1.6
2024/05/16 20:48, -1.6
2024/05/16 20:50, -1.6
2024/05/16 20:52, -1.6
2024/05/16 20:54, 0.0
2024/05/16 20:56, 0.0
2024/05/16 20:58, 0.0
2024/05/16 21:00, 0.0
2024/05/16 21:02, 0.0
2024/05/16 21:04, 0.0
2024/05/16 21:06, 0.0
2024/05/16 21:08, -1.6
2024/05/16 21:10, -1.6
2024/05/16 21:12, -1.6
2024/05/16 21:14, -1.6
2024/05/16 21:16, -1.6
2024/05/16 21:18, -1.6
2024/05/16 21:20, -1.6
2024/05/16 21:22, -1.6
2024/05/16 21:24, -1.6
2024/05/16 21:26, -1.6
2024/05/16 21:28, -1.6
2024/05/16 21:30, 0.0
2024/05/16 21:32, -1.6
2024/05/16 21:34, -1.6
2024/05/16 21:36, -1.6
2024/05/16 21:38, -1.6
2024/05/16 21:40, -1.6
2024/05/16 21:42, -1.6
2024/05/16 21:44, -1.6
2024/05/16 21:46, -1.6
2024/05/16 21:48, -1.6
2024/05/16 21:50, -1.6
2024/05/16 21:52, 0.0
2024/05/16 21:54, -1.6
2024/05/16 21:56, -1.6
2024/05/16 21:58, -1.6
2024/05/16 22:00, -1.6
2024/05/16 22:02, -1.6
2024/05/16 22:04, 0.0
2024/05/16 22:06, -1.6
2024/05/16 22:08, -1.6
2024/05/16 22:10, -1.6
2024/05/16 22:12, -1.6
2024/05/16 22:14, -1.6
2024/05/16 22:16, -1.6
2024/05/16 22:18, -1.6
2024/05/16 22:20, -1.6
2024/05/16 22:22, -1.6
2024/05/16 22:24, -1.6
2024/05/16 22:26, -1.6
2024/05/16 22:28, -1.6
2024/05/16 22:30, -3.2
2024/05/16 22:32, -3.2
2024/05/16 22:34, -3.2
2024/05/16 22:36, -1.6
2024/05/16 22:38, -1.6
2024/05/16 22:40, -1.6
2024/05/16 22:42, -1.6
2024/05/16 22:44, -3.2
2024/05/16 22:46, -3.2
2024/05/16 22:48, -3.2
2024/05/16 22:50, -3.2
2024/05/16 22:52, -1.6
2024/05/16 22:54, -3.2
2024/05/16 22:56, -1.6
2024/05/16 22:58, -1.6
2024/05/16 23:00, -1.6
2024/05/16 23:02, -1.6
2024/05/16 23:04, -1.6
2024/05/16 23:06, -1.6
2024/05/16 23:08, -1.6
2024/05/16 23:10, -1.6
2024/05/16 23:12, -1.6
2024/05/16 23:14, -1.6
2024/05/16 23:16, -1.6
2024/05/16 23:18, -1.6
2024/05/16 23:20, -1.6
2024/05/16 23:22, -1.6
2024/05/16 23:24, -1.6
2024/05/16 23:26, -1.6
2024/05/16 23:28, -1.6
2024/05/16 23:30, -1.6
2024/05/16 23:32, 0.0
2024/05/16 23:34, 0.0
2024/05/16 23:36, 0.0
2024/05/16 23:38, 0.0
2024/05/16 23:40, -1.6
2024/05/16 23:42, -1.6
2024/05/16 23:44, -1.6
2024/05/16 23:46, 0.0
2024/05/16 23:48, 0.0
2024/05/16 23:50, -1.6
2024/05/16 23:52, -1.6
2024/05/16 23:54, 0.0
2024/05/16 23:56, 0.0
2024/05/16 23:58, 0.0
2024/05/17 00:00, 0.0
2024/05/17 00:02, 0.0
2024/05/17 00:04, 0.0
2024/05/17 00:06, 0.0
2024/05/17 00:08, -1.6
2024/05/17 00:10, 0.0
2024/05/17 00:12, 0.0
2024/05/17 00:14, -1.6
2024/05/17 00:16, -1.6
2024/05/17 00:18, -1.6
2024/05/17 00:20, -1.6
2024/05/17 00:22, -1.6
2024/05/17 00:24, -1.6
2024/05/17 00:26, -1.6
2024/05/17 00:28, -1.6
2024/05/17 00:30, -1.6
2024/05/17 00:32, -1.6
2024/05/17 00:34, -1.6
2024/05/17 00:36, -1.6
2024/05/17 00:38, -1.6
2024/05/17 00:40, -1.6
2024/05/17 00:42, -1.6
2024/05/17 00:44, -1.6
2024/05/17 00:46, -1.6
2024/05/17 00:48, -1.6
2024/05/17 00:50, -1.6
2024/05/17 00:52, -1.6
2024/05/17 00:54, -1.6
2024/05/17 00:56, -1.6
2024/05/17 00:58, -1.6
2024/05/17 01:00, -1.6
2024/05/17 01:02, -1.6
2024/05/17 01:04, -1.6
2024/05/17 01:06, -1.6
2024/05/17 01:08, -1.6
2024/05/17 01:10, -1.6
2024/05/17 01:12, -1.6
2024/05/17 01:14, -1.6
2024/05/17 01:16, -1.6
2024/05/17 01:18, -1.6
2024/05/17 01:20, -1.6
2024/05/17 01:22, -1.6
2024/05/17 01:24, -1.6
2024/05/17 01:26, -1.6
2024/05/17 01:28, 0.0
2024/05/17 01:30, -1.6
2024/05/17 01:32, -1.6
2024/05/17 01:34, -1.6
2024/05/17 01:36, -1.6
2024/05/17 01:38, -1.6
2024/05/17 01:40, 0.0
2024/05/17 01:42, -1.6
2024/05/17 01:44, -1.6
2024/05/17 01:46, 0.0
2024/05/17 01:48, 0.0
2024/05/17 01:50, 0.0
2024/05/17 01:52, 0.0
2024/05/17 01:54, 0.0
2024/05/17 01:56, 0.0
2024/05/17 01:58, 0.0
2024/05/17 02:00, 0.0
2024/05/17 02:02, 0.0
2024/05/17 02:04, 0.0
2024/05/17 02:06, 0.0
2024/05/17 02:08, 0.0
2024/05/17 02:10, 0.0
2024/05/17 02:12, 0.0
2024/05/17 02:14, 0.0
2024/05/17 02:16, 0.0
2024/05/17 02:18, 0.0
2024/05/17 02:20, 0.0
2024/05/17 02:22, 0.0
2024/05/17 02:24, -1.6
2024/05/17 02:26, -1.6
2024/05/17 02:28, -1.6
2024/05/17 02:30, -1.6
2024/05/17 02:32, -1.6
2024/05/17 02:34, -1.6
2024/05/17 02:36, -1.6
2024/05/17 02:38, -1.6
2024/05/17 02:40, -1.6
2024/05/17 02:42, -1.6
2024/05/17 02:44, -1.6
2024/05/17 02:46, -1.6
2024/05/17 02:48, -1.6
2024/05/17 02:50, -1.6
2024/05/17 02:52, -1.6
2024/05/17 02:54, -1.6
2024/05/17 02:56, 0.0
2024/05/17 02:58, -1.6
2024/05/17 03:00, 0.0
2024/05/17 03:02, 0.0
2024/05/17 03:04, 0.0
2024/05/17 03:06, 0.0
2024/05/17 03:08, 0.0
2024/05/17 03:10, 0.0
2024/05/17 03:12, 0.0
2024/05/17 03:14, 0.0
2024/05/17 03:16, 0.0
2024/05/17 03:18, 0.0
2024/05/17 03:20, 0.0
2024/05/17 03:22, 0.0
2024/05/17 03:24, 0.0
2024/05/17 03:26, 0.0
2024/05/17 03:28, 0.0
2024/05/17 03:30, 0.0
2024/05/17 03:32, 0.0
2024/05/17 03:34, 0.0
2024/05/17 03:36, -1.6
2024/05/17 03:38, 0.0
2024/05/17 03:40, 0.0
2024/05/17 03:42, 0.0
2024/05/17 03:44, 0.0
2024/05/17 03:46, 0.0
2024/05/17 03:48, 0.0
2024/05/17 03:50, 0.0
2024/05/17 03:52, 0.0
2024/05/17 03:54, 0.0
2024/05/17 03:56, 0.0
2024/05/17 03:58, 0.0
2024/05/17 04:00, 0.0
2024/05/17 04:02, -1.6
2024/05/17 04:04, -1.6
2024/05/17 04:06, -1.6
2024/05/17 04:08, -1.6
2024/05/17 04:10, -1.6
2024/05/17 04:12, -1.6
2024/05/17 04:14, -1.6
2024/05/17 04:16, 0.0
2024/05/17 04:18, 0.0
2024/05/17 04:20, 0.0
2024/05/17 04:22, 0.0
2024/05/17 04:24, 0.0
2024/05/17 04:26, 0.0
2024/05/17 04:28, -1.6
2024/05/17 04:30, 0.0
2024/05/17 04:32, -1.6
2024/05/17 04:34, 0.0
2024/05/17 04:36, 0.0
2024/05/17 04:38, 0.0
2024/05/17 04:40, 0.0
2024/05/17 04:42, 0.0
2024/05/17 04:44, 0.0
2024/05/17 04:46, 0.0
2024/05/17 04:48, 0.0
2024/05/17 04:50, 0.0
2024/05/17 04:52, 0.0
2024/05/17 04:54, 0.0
2024/05/17 04:56, 1.6
2024/05/17 04:58, 0.0
2024/05/17 05:00, 0.0
2024/05/17 05:02, 1.6
2024/05/17 05:04, 1.6
2024/05/17 05:06, 0.0
2024/05/17 05:08, 1.6
2024/05/17 05:10, 0.0
2024/05/17 05:12, 0.0
2024/05/17 05:14, 0.0
2024/05/17 05:16, 1.6
2024/05/17 05:18, 0.0
2024/05/17 05:20, 1.6
2024/05/17 05:22, 1.6
2024/05/17 05:24, 1.6
2024/05/17 05:26, 0.0
2024/05/17 05:28, 0.0
2024/05/17 05:30, 0.0
2024/05/17 05:32, 0.0
2024/05/17 05:34, 0.0
2024/05/17 05:36, 1.6
2024/05/17 05:38, 1.6
2024/05/17 05:40, 1.6
2024/05/17 05:42, 1.6
2024/05/17 05:44, 0.0
2024/05/17 05:46, 0.0
2024/05/17 05:48, 0.0
2024/05/17 05:50, 0.0
2024/05/17 05:52, 0.0
2024/05/17 05:54, 1.6
2024/05/17 05:56, 0.0
2024/05/17 05:58, 0.0
2024/05/17 06:00, 0.0
2024/05/17 06:02, 0.0
2024/05/17 06:04, 0.0
2024/05/17 06:06, 0.0
2024/05/17 06:08, 0.0
2024/05/17 06:10, 0.0
2024/05/17 06:12, 0.0
2024/05/17 06:14, 0.0
2024/05/17 06:16, 0.0
2024/05/17 06:18, 0.0
2024/05/17 06:20, 0.0
2024/05/17 06:22, 0.0
2024/05/17 06:24, 0.0
2024/05/17 06:26, 0.0
2024/05/17 06:28, 0.0
2024/05/17 06:30, 0.0
2024/05/17 06:32, 0.0
2024/05/17 06:34, 0.0
2024/05/17 06:36, 0.0
2024/05/17 06:38, 0.0
2024/05/17 06:40, 0.0
2024/05/17 06:42, 0.0
2024/05/17 06:44, 0.0
2024/05/17 06:46, 0.0
2024/05/17 06:48, 0.0
2024/05/17 06:50, 0.0
2024/05/17 06:52, 0.0
2024/05/17 06:54, 0.0
2024/05/17 06:56, 0.0
2024/05/17 06:58, 0.0
2024/05/17 07:00, 0.0
2024/05/17 07:02, 0.0
2024/05/17 07:04, 0.0
2024/05/17 07:06, 0.0
2024/05/17 07:08, 0.0
2024/05/17 07:10, 0.0
2024/05/17 07:12, 0.0
2024/05/17 07:14, -1.6
2024/05/17 07:16, 0.0
2024/05/17 07:18, 0.0
2024/05/17 07:20, 0.0
2024/05/17 07:22, 0.0
2024/05/17 07:24, 0.0
2024/05/17 07:26, 0.0
2024/05/17 07:28, 0.0
2024/05/17 07:30, 0.0
2024/05/17 07:32, 0.0
2024/05/17 07:34, -1.6
2024/05/17 07:36, -1.6
2024/05/17 07:38, -1.6
2024/05/17 07:40, -1.6
2024/05/17 07:42, 0.0
2024/05/17 07:44, -1.6
2024/05/17 07:46, -1.6
2024/05/17 07:48, -1.6
2024/05/17 07:50, -1.6
2024/05/17 07:52, -1.6
2024/05/17 07:54, -1.6
2024/05/17 07:56, -1.6
2024/05/17 07:58, -1.6
2024/05/17 08:00, -1.6
2024/05/17 08:02, -1.6
2024/05/17 08:04, -1.6
2024/05/17 08:06, -1.6
2024/05/17 08:08, 0.0
2024/05/17 08:10, 0.0
2024/05/17 08:12, 0.0
2024/05/17 08:14, 0.0
2024/05/17 08:16, 0.0
2024/05/17 08:18, 0.0
2024/05/17 08:20, 0.0
2024/05/17 08:22, 0.0
2024/05/17 08:24, 0.0
2024/05/17 08:26, 0.0
2024/05/17 08:28, 0.0
2024/05/17 08:30, 0.0
2024/05/17 08:32, 0.0
2024/05/17 08:34, 0.0
2024/05/17 08:36, 1.6
2024/05/17 08:38, 0.0
2024/05/17 08:40, 0.0
2024/05/17 08:42, 0.0
2024/05/17 08:44, 0.0
2024/05/17 08:46, 0.0
2024/05/17 08:48, 0.0
2024/05/17 08:50, 0.0
2024/05/17 08:52, 0.0
2024/05/17 08:54, 0.0
2024/05/17 08:56, 0.0
2024/05/17 08:58, 0.0
2024/05/17 09:00, 0.0
2024/05/17 09:02, 0.0
2024/05/17 09:04, 1.6
2024/05/17 09:06, 0.0
2024/05/17 09:08, 0.0
2024/05/17 09:10, 0.0
2024/05/17 09:12, 0.0
2024/05/17 09:14, 0.0
2024/05/17 09:16, 0.0
2024/05/17 09:18, 0.0
2024/05/17 09:20, 0.0
2024/05/17 09:22, 0.0
2024/05/17 09:24, 0.0
2024/05/17 09:26, 0.0
2024/05/17 09:28, 0.0
2024/05/17 09:30, 0.0
2024/05/17 09:32, -1.6
2024/05/17 09:34, -1.6
2024/05/17 09:36, -1.6
2024/05/17 09:38, -1.6
2024/05/17 09:40, -1.6
2024/05/17 09:42, -1.6
2024/05/17 09:44, -1.6
2024/05/17 09:46, -1.6
2024/05/17 09:48, -1.6
2024/05/17 09:50, -1.6
2024/05/17 09:52, -1.6
2024/05/17 09:54, -1.6
2024/05/17 09:56, 0.0
2024/05/17 09:58, 0.0
2024/05/17 10:00, 0.0
2024/05/17 10:02, 0.0
2024/05/17 10:04, 0.0
2024/05/17 10:06, 0.0
2024/05/17 10:08, 0.0
2024/05/17 10:10, 0.0
2024/05/17 10:12, -1.6
2024/05/17 10:14, 0.0
2024/05/17 10:16, -1.6
2024/05/17 10:18, 0.0
2024/05/17 10:20, 0.0
2024/05/17 10:22, 0.0
2024/05/17 10:24, 0.0
2024/05/17 10:26, 0.0
2024/05/17 10:28, 0.0
2024/05/17 10:30, 0.0
2024/05/17 10:32, 0.0
2024/05/17 10:34, -1.6
2024/05/17 10:36, -1.6
2024/05/17 10:38, -1.6
2024/05/17 10:40, -1.6
2024/05/17 10:42, -1.6
2024/05/17 10:44, -1.6
2024/05/17 10:46, -1.6
2024/05/17 10:48, -1.6
2024/05/17 10:50, -1.6
2024/05/17 10:52, -1.6
2024/05/17 10:54, -1.6
2024/05/17 10:56, -1.6
2024/05/17 10:58, -1.6
2024/05/17 11:00, -1.6
2024/05/17 11:02, -1.6
2024/05/17 11:04, -1.6
2024/05/17 11:06, 0.0
2024/05/17 11:08, -1.6
2024/05/17 11:10, -1.6
2024/05/17 11:12, -1.6
2024/05/17 11:14, 0.0
2024/05/17 11:16, -1.6
2024/05/17 11:18, -1.6
2024/05/17 11:20, 0.0
2024/05/17 11:22, 0.0
2024/05/17 11:24, -1.6
2024/05/17 11:26, -1.6
2024/05/17 11:28, 0.0
2024/05/17 11:30, 0.0
2024/05/17 11:32, 0.0
2024/05/17 11:34, 0.0
2024/05/17 11:36, 0.0
2024/05/17 11:38, 0.0
2024/05/17 11:40, 0.0
2024/05/17 11:42, 0.0
2024/05/17 11:44, 0.0
2024/05/17 11:46, -1.6
2024/05/17 11:48, 0.0
2024/05/17 11:50, -1.6
2024/05/17 11:52, -1.6
2024/05/17 11:54, 0.0
2024/05/17 11:56, -1.6
2024/05/17 11:58, -1.6
2024/05/17 12:00, 0.0
2024/05/17 12:02, 0.0
2024/05/17 12:04, 0.0
2024/05/17 12:06, 0.0
2024/05/17 12:08, 0.0
2024/05/17 12:10, 0.0
2024/05/17 12:12, 0.0
2024/05/17 12:14, 0.0
2024/05/17 12:16, 0.0
2024/05/17 12:18, 0.0
2024/05/17 12:20, 0.0
2024/05/17 12:22, 0.0
2024/05/17 12:24, 0.0
2024/05/17 12:26, 0.0
2024/05/17 12:28, 0.0
2024/05/17 12:30, 0.0
2024/05/17 12:32, 0.0
2024/05/17 12:34, 0.0
2024/05/17 12:36, 0.0
2024/05/17 12:38, 0.0
2024/05/17 12:40, 0.0
2024/05/17 12:42, 0.0
2024/05/17 12:44, 0.0
2024/05/17 12:46, 0.0
2024/05/17 12:48, 0.0
2024/05/17 12:50, 0.0
2024/05/17 12:52, 0.0
2024/05/17 12:54, 0.0
2024/05/17 12:56, 0.0
2024/05/17 12:58, 0.0
2024/05/17 13:00, 0.0
2024/05/17 13:02, 0.0
2024/05/17 13:04, 0.0
2024/05/17 13:06, 0.0
2024/05/17 13:08, 0.0
2024/05/17 13:10, 0.0
2024/05/17 13:12, 0.0
2024/05/17 13:14, 0.0
2024/05/17 13:16, 0.0
2024/05/17 13:18, 0.0
2024/05/17 13:20, 0.0
2024/05/17 13:22, 0.0
2024/05/17 13:24, 0.0
2024/05/17 13:26, 0.0
2024/05/17 13:28, 0.0
2024/05/17 13:30, 0.0
2024/05/17 13:32, 0.0
2024/05/17 13:34, 0.0
2024/05/17 13:36, 0.0
2024/05/17 13:38, 0.0
2024/05/17 13:40, 0.0
2024/05/17 13:42, 0.0
2024/05/17 13:44, 0.0
2024/05/17 13:46, 0.0
2024/05/17 13:48, 0.0
2024/05/17 13:50, 0.0
2024/05/17 13:52, 0.0
2024/05/17 13:54, 0.0
2024/05/17 13:56, 0.0
2024/05/17 13:58, 0.0
2024/05/17 14:00, 0.0
2024/05/17 14:02, 0.0
2024/05/17 14:04, -1.6
2024/05/17 14:06, 0.0
2024/05/17 14:08, -1.6
2024/05/17 14:10, 0.0
2024/05/17 14:12, 0.0
2024/05/17 14:14, 0.0
2024/05/17 14:16, 0.0
2024/05/17 14:18, 0.0
2024/05/17 14:20, 0.0
2024/05/17 14:22, 0.0
2024/05/17 14:24, 0.0
2024/05/17 14:26, 0.0
2024/05/17 14:28, 0.0
2024/05/17 14:30, 0.0
2024/05/17 14:32, 0.0
2024/05/17 14:34, 0.0
2024/05/17 14:36, 0.0
2024/05/17 14:38, 0.0
2024/05/17 14:40, 0.0
2024/05/17 14:42, 1.6
2024/05/17 14:44, 0.0
2024/05/17 14:46, 0.0
2024/05/17 14:48, 0.0
2024/05/17 14:50, 0.0
2024/05/17 14:52, 0.0
2024/05/17 14:54, 1.6
2024/05/17 14:56, 1.6
2024/05/17 14:58, 1.6
2024/05/17 15:00, 1.6
2024/05/17 15:02, 1.6
2024/05/17 15:04, 1.6
2024/05/17 15:06, 1.6
2024/05/17 15:08, 1.6
2024/05/17 15:10, 1.6
2024/05/17 15:12, 1.6
2024/05/17 15:14, 1.6
2024/05/17 15:16, 1.6
2024/05/17 15:18, 1.6
2024/05/17 15:20, 1.6
2024/05/17 15:22, 2.4
2024/05/17 15:24, 2.4
2024/05/17 15:26, 2.4
2024/05/17 15:28, 2.4
2024/05/17 15:30, 2.4
2024/05/17 15:32, 2.4
2024/05/17 15:34, 1.6
2024/05/17 15:36, 1.6
2024/05/17 15:38, 1.6
2024/05/17 15:40, 1.6
2024/05/17 15:42, 1.6
2024/05/17 15:44, 2.4
2024/05/17 15:46, 2.4
2024/05/17 15:48, 1.6
2024/05/17 15:50, 1.6
2024/05/17 15:52, 1.6
2024/05/17 15:54, 1.6
2024/05/17 15:56, 1.6
2024/05/17 15:58, 0.0
2024/05/17 16:00, 0.0
2024/05/17 16:02, 0.0
2024/05/17 16:04, 0.0
2024/05/17 16:06, 1.6
2024/05/17 16:08, 1.6
2024/05/17 16:10, 2.4
2024/05/17 16:12, 2.4
2024/05/17 16:14, 2.4
2024/05/17 16:16, 2.4
2024/05/17 16:18, 2.4
2024/05/17 16:20, 2.4
2024/05/17 16:22, 2.4
2024/05/17 16:24, 1.6
2024/05/17 16:26, 1.6
2024/05/17 16:28, 1.6
2024/05/17 16:30, 2.4
2024/05/17 16:32, 1.6
2024/05/17 16:34, 1.6
2024/05/17 16:36, 1.6
2024/05/17 16:38, 0.0
2024/05/17 16:40, 1.6
2024/05/17 16:42, 1.6
2024/05/17 16:44, 0.0
2024/05/17 16:46, 0.0
2024/05/17 16:48, 0.0
2024/05/17 16:50, 0.0
2024/05/17 16:52, 0.0
2024/05/17 16:54, 0.0
2024/05/17 16:56, 0.0
2024/05/17 16:58, 0.0
2024/05/17 17:00, 0.0
2024/05/17 17:02, -1.6
2024/05/17 17:04, -1.6
2024/05/17 17:06, -1.6
2024/05/17 17:08, -1.6
2024/05/17 17:10, -1.6
2024/05/17 17:12, -1.6
2024/05/17 17:14, -1.6
2024/05/17 17:16, -1.6
2024/05/17 17:18, -1.6
2024/05/17 17:20, -3.2
2024/05/17 17:22, -3.2
2024/05/17 17:24, -1.6
2024/05/17 17:26, -1.6
2024/05/17 17:28, -1.6
2024/05/17 17:30, -1.6
2024/05/17 17:32, 0.0
2024/05/17 17:34, 0.0
2024/05/17 17:36, 0.0
2024/05/17 17:38, 0.0
2024/05/17 17:40, 0.0
2024/05/17 17:42, 0.0
2024/05/17 17:44, 0.0
2024/05/17 17:46, -1.6
2024/05/17 17:48, 0.0
2024/05/17 17:50, 0.0
2024/05/17 17:52, 0.0
2024/05/17 17:54, 0.0
2024/05/17 17:56, 1.6
2024/05/17 17:58, 1.6
2024/05/17 18:00, 1.6
2024/05/17 18:02, 1.6
2024/05/17 18:04, 1.6
2024/05/17 18:06, 1.6
2024/05/17 18:08, 1.6
2024/05/17 18:10, 1.6
2024/05/17 18:12, 1.6
2024/05/17 18:14, 0.0
2024/05/17 18:16, 0.0
2024/05/17 18:18, 1.6
2024/05/17 18:20, 0.0
2024/05/17 18:22, 0.0
2024/05/17 18:24, 0.0
2024/05/17 18:26, 0.0
2024/05/17 18:28, 0.0
2024/05/17 18:30, 0.0
2024/05/17 18:32, 0.0
2024/05/17 18:34, 0.0
2024/05/17 18:36, 0.0
2024/05/17 18:38, 0.0
2024/05/17 18:40, 0.0
2024/05/17 18:42, 0.0
2024/05/17 18:44, 0.0
2024/05/17 18:46, 0.0
2024/05/17 18:48, 0.0
2024/05/17 18:50, 0.0
2024/05/17 18:52, 0.0
2024/05/17 18:54, 0.0
2024/05/17 18:56, 0.0
2024/05/17 18:58, 0.0
2024/05/17 19:00, 0.0
2024/05/17 19:02, 0.0
2024/05/17 19:04, 0.0
2024/05/17 19:06, 0.0
2024/05/17 19:08, 0.0
2024/05/17 19:10, 0.0
2024/05/17 19:12, 0.0
2024/05/17 19:14, 1.6
2024/05/17 19:16, 0.0
2024/05/17 19:18, 0.0
2024/05/17 19:20, 0.0
2024/05/17 19:22, 0.0
2024/05/17 19:24, -1.6
2024/05/17 19:26, 0.0
2024/05/17 19:28, 0.0
2024/05/17 19:30, 0.0
2024/05/17 19:32, 0.0
2024/05/17 19:34, 0.0
2024/05/17 19:36, 0.0
2024/05/17 19:38, 0.0
2024/05/17 19:40, 0.0
2024/05/17 19:42, 0.0
2024/05/17 19:44, 0.0
2024/05/17 19:46, -1.6
2024/05/17 19:48, 0.0
2024/05/17 19:50, 0.0
2024/05/17 19:52, 0.0
2024/05/17 19:54, 0.0
2024/05/17 19:56, 0.0
2024/05/17 19:58, 0.0
2024/05/17 20:00, 0.0
2024/05/17 20:02, 0.0
2024/05/17 20:04, 0.0
2024/05/17 20:06, 0.0
2024/05/17 20:08, 0.0
2024/05/17 20:10, 0.0
2024/05/17 20:12, 0.0
2024/05/17 20:14, 0.0
2024/05/17 20:16, 0.0
2024/05/17 20:18, 0.0
2024/05/17 20:20, 0.0
2024/05/17 20:22, 1.6
2024/05/17 20:24, 0.0
2024/05/17 20:26, -1.6
2024/05/17 20:28, 0.0
2024/05/17 20:30, 0.0
2024/05/17 20:32, -1.6
2024/05/17 20:34, 0.0
2024/05/17 20:36, 0.0
2024/05/17 20:38, 0.0
2024/05/17 20:40, 0.0
2024/05/17 20:42, 0.0
2024/05/17 20:44, 0.0
2024/05/17 20:46, 0.0
2024/05/17 20:48, 0.0
2024/05/17 20:50, 1.6
2024/05/17 20:52, 2.4
2024/05/17 20:54, 2.4
2024/05/17 20:56, 1.6
2024/05/17 20:58, 1.6
2024/05/17 21:00, 2.4
2024/05/17 21:02, 2.4
2024/05/17 21:04, 1.6
2024/05/17 21:06, 1.6
2024/05/17 21:08, 1.6
2024/05/17 21:10, 1.6
2024/05/17 21:12, 1.6
2024/05/17 21:14, 1.6
2024/05/17 21:16, 0.0
2024/05/17 21:18, 0.0
2024/05/17 21:20, 0.0
2024/05/17 21:22, 0.0
2024/05/17 21:24, 0.0
2024/05/17 21:26, 0.0
2024/05/17 21:28, 0.0
2024/05/17 21:30, 0.0
2024/05/17 21:32, 0.0
2024/05/17 21:34, -1.6
2024/05/17 21:36, 0.0
2024/05/17 21:38, 0.0
2024/05/17 21:40, 0.0
2024/05/17 21:42, 0.0
2024/05/17 21:44, 0.0
2024/05/17 21:46, 0.0
2024/05/17 21:48, 0.0
2024/05/17 21:50, 0.0
2024/05/17 21:52, 0.0
2024/05/17 21:54, 0.0
2024/05/17 21:56, 0.0
2024/05/17 21:58, 0.0
2024/05/17 22:00, 0.0
2024/05/17 22:02, -1.6
2024/05/17 22:04, -1.6
2024/05/17 22:06, -1.6
2024/05/17 22:08, -1.6
2024/05/17 22:10, -1.6
2024/05/17 22:12, -1.6
2024/05/17 22:14, -1.6
2024/05/17 22:16, -1.6
2024/05/17 22:18, -1.6
2024/05/17 22:20, -1.6
2024/05/17 22:22, -3.2
2024/05/17 22:24, -1.6
2024/05/17 22:26, -1.6
2024/05/17 22:28, -1.6